User: anonymous   Login
Location: D�nning
(49.2479°N, 12.8491°E)
Time: 01:09:14
(UTC+00:00)
Language:

Cosmos 2278 Rocket - Orbit

View from above orbital plane
View from above orbital plane
View from above satellite
View from above satellite

Ground track
Ground track

The orbit data is extracted from the following two-line orbital elements,

1 23088U 94023B   20336.48492347 -.00000363  00000-0 -16361-3 0  9998
2 23088  70.9967 150.5337 0004686 312.0967  47.9756 14.14682764374204
Epoch (UTC): 01 December 2020 11:38:17
Eccentricity: 0.0004686
inclination: 70.9967°
perigee height: 840 km
apogee height: 847 km
right ascension of ascending node: 150.5337°
argument of perigee: 312.0967°
revolutions per day: 14.14682764
mean anomaly at epoch: 47.9756°
orbit number at epoch: 37420

The dashed part of the orbit path shows where the satellite is in the earth's shadow,  

DLR